455P/PanSTARRS (2017)

Japanese version
Home page
Updated on February 8, 2023

---------------------------------------------------------------------

* Profile

Designation 455P/2017 S9
Discovery Date September 30, 2017
Magnitude 22.0 mag
Discoverer Pan-STARRS 1 telescope (Haleakala)

* Pictures

* Orbital Elements

                    Epoch = 2017 July 26.0 TT
     T = 2017 July 23.63636 TT        Peri. = 237.93077
     e = 0.3042585                    Node  = 146.20988 2000.0
     q = 2.1952030 AU                 Incl. =  14.13755
       a =  3.1551991 AU   n = 0.17585872   P =   5.60 years

* Magnitudes Graph

        m1 = 16.5 + 5 log d + 10.0 log r

---------------------------------------------------------------------

The orbital elements are printed on CBET 5200.
The magnitudes graphs are made with Comet for Windows.

---------------------------------------------------------------------

Copyright(C) Seiichi Yoshida (comet@aerith.net). All rights reserved.